Location: Camp Chawanakee
(37.1136°N, 119.2924°W)
Time: 11:59:22
(UTC+00:00)

Daily predictions for brighter satellites

Satellite Brightness Start Highest point End
(mag) Time Altitude Azimuth Time Altitude Azimuth Time Altitude Azimuth
CZ-2C R/B 3.8 12:02:56 10° NNW 12:06:10 27° WNW 12:07:44 20° WSW
Cosmos 1825 Rocket 4.5 12:02:32 10° NNW 12:06:10 27° W 12:08:18 18° SW
ARIANE 5 R/B 4.1 12:02:41 10° NNW 12:06:17 19° WNW 12:08:34 15° W
MSX 4.2 12:01:43 10° N 12:07:10 45° WNW 12:11:54 14° SW
USA 267 4.0 12:01:15 10° ESE 12:07:35 55° NE 12:13:56 10° NW
Cosmos 1745 Rocket 4.3 12:05:28 10° NNW 12:11:22 45° W 12:17:10 10° SSW
CZ-4B R/B 2.3 12:09:28 10° SSE 12:12:36 48° ENE 12:15:41 10° N
Cosmos 1455 3.6 12:10:48 10° SSE 12:14:25 41° E 12:18:04 10° NNE
Landsat 5 3.9 12:11:55 10° SSW 12:15:32 36° W 12:19:20 10° NNW
Cosmos 1953 Rocket 4.3 12:12:36 10° NNW 12:16:37 33° W 12:20:35 10° SSW
Cosmos 1300 3.8 12:15:09 17° SW 12:17:15 27° WNW 12:20:33 10° NNW
Lacrosse 5 rocket 2.8 12:13:20 10° SSW 12:17:29 38° SE 12:21:45 10° ENE
SeaSat 1 2.6 12:17:55 10° NNE 12:22:48 61° WNW 12:27:38 10° SW
ADEOS Rocket 4.0 12:18:03 10° SSE 12:25:37 69° ENE 12:33:21 10° N
Cosmos 2058 3.4 12:23:49 10° N 12:27:59 67° E 12:32:09 10° SSE
ERS-2 3.0 12:25:24 10° SSW 12:28:34 28° W 12:31:45 10° NW
TSX-5 3.1 12:39:41 10° SSW 12:42:52 84° WNW 12:46:03 10° NNE
SAR-Lupe-4 3.7 12:41:36 10° S 12:45:05 52° W 12:48:35 10° NNW
COSMO-SKYMED 1 4.5 12:41:30 10° SE 12:45:28 36° ENE 12:49:27 10° N
